TimeCDT,TemperatureF,Dew PointF,Humidity,Sea Level PressureIn,VisibilityMPH,Wind Direction,Wind SpeedMPH,Gust SpeedMPH,PrecipitationIn,Events,Conditions,WindDirDegrees,DateUTC
12:53 AM,81.0,66.9,62,29.75,10.0,South,19.6,27.6,N/A,,Clear,190,2013-06-12 05:53:00
1:53 AM,80.1,69.1,69,29.75,10.0,South,18.4,24.2,N/A,,Clear,190,2013-06-12 06:53:00
2:53 AM,80.1,69.1,69,29.73,10.0,South,15.0,-,N/A,,Clear,190,2013-06-12 07:53:00
3:53 AM,79.0,69.1,72,29.74,10.0,South,15.0,21.9,N/A,,Clear,190,2013-06-12 08:53:00
4:53 AM,78.1,68.0,71,29.74,10.0,South,15.0,20.7,N/A,,Clear,190,2013-06-12 09:53:00
5:53 AM,78.1,68.0,71,29.72,10.0,South,19.6,-,N/A,,Clear,180,2013-06-12 10:53:00
6:53 AM,77.0,68.0,74,29.73,10.0,South,16.1,-,N/A,,Clear,190,2013-06-12 11:53:00
7:53 AM,81.0,68.0,65,29.72,10.0,South,13.8,-,N/A,,Clear,180,2013-06-12 12:53:00
8:53 AM,81.0,66.9,62,29.72,10.0,SSW,15.0,23.0,N/A,,Clear,200,2013-06-12 13:53:00
9:53 AM,84.9,68.0,57,29.71,10.0,SSW,16.1,24.2,N/A,,Clear,210,2013-06-12 14:53:00
10:53 AM,87.1,66.9,51,29.71,10.0,SSW,17.3,28.8,N/A,,Clear,210,2013-06-12 15:53:00
11:53 AM,89.1,68.0,50,29.73,10.0,SW,17.3,26.5,N/A,,Clear,230,2013-06-12 16:53:00
12:53 PM,91.0,66.9,45,29.73,10.0,SW,16.1,21.9,N/A,,Partly Cloudy,220,2013-06-12 17:53:00
1:53 PM,93.0,66.0,41,29.73,10.0,West,9.2,-,N/A,,Clear,260,2013-06-12 18:53:00
2:53 PM,93.9,64.9,38,29.74,10.0,West,13.8,21.9,N/A,,Clear,260,2013-06-12 19:53:00
3:53 PM,96.1,66.0,37,29.74,10.0,WNW,13.8,-,N/A,,Clear,290,2013-06-12 20:53:00
4:53 PM,95.0,66.0,38,29.75,10.0,NNW,16.1,-,N/A,,Clear,330,2013-06-12 21:53:00
5:53 PM,93.9,68.0,43,29.75,10.0,NW,15.0,-,N/A,,Clear,310,2013-06-12 22:53:00
6:53 PM,91.9,64.9,41,29.77,10.0,NNW,16.1,-,N/A,,Clear,330,2013-06-12 23:53:00
7:53 PM,88.0,64.0,45,29.80,10.0,NW,13.8,24.2,N/A,,Clear,320,2013-06-13 00:53:00
8:53 PM,82.9,61.0,47,29.83,10.0,NNW,16.1,-,N/A,,Clear,330,2013-06-13 01:53:00
9:53 PM,79.0,59.0,50,29.87,10.0,NNW,19.6,26.5,N/A,,Clear,330,2013-06-13 02:53:00
10:53 PM,73.0,55.9,55,29.92,10.0,North,21.9,-,N/A,,Clear,350,2013-06-13 03:53:00
11:53 PM,71.1,55.0,57,29.95,10.0,NNW,16.1,-,N/A,,Clear,330,2013-06-13 04:53:00